[[{"header":{"parameterUnit":"m.s-1","parameterCategory":1,"la1":30.2991,"la2":30.254,"lo1":-89.0895,"lo2":-89.0444,"dy":0.0017,"dx":0.0017,"nx":28,"ny":28,"refTime":"2026-02-08T03:00:00:Z","depth":0,"parameterNumber":2,"parameterNumberName":"U-component_of_WINDS"},"data":[0,0,0,0,0,0,0,0,0,0,0,0,0,0,0,0,0,0,0,0,0,0,0,0,0,0,0,0,0,0,0,0,0,0,0,0,0,0,0,0,0,0,0,0,0,0,0,0,0,0,0,0,0,0,0,0,0,0,1.9269,1.9269,0,1.9322,1.9323,1.9324,1.9265,1.9263,1.9261,1.9259,1.9319,1.9323,1.9326,0,0,0,0,0,0,0,0,0,0,0,0,0,1.9121,1.9124,1.9269,1.9269,1.927,1.9322,1.9323,1.9324,1.9266,1.9263,1.926,1.9258,1.9318,1.9322,1.9327,0,0,0,0,0,0,0,0,0,0,0,0,0,1.9181,1.9125,1.9268,1.9247,1.9246,1.9322,1.9323,1.9324,1.9266,1.9263,1.9259,1.9256,1.9317,1.9322,1.9327,1.9429,0,0,1.9344,1.9347,0,0,0,0,0,0,0,0,1.9178,1.9187,1.925,1.9249,1.9247,1.9283,1.9293,1.9359,1.9267,1.9259,1.9259,1.9255,1.931,1.9316,1.9334,1.9432,1.9435,1.9345,1.9348,1.9351,1.9352,0,0,0,0,0,0,0,1.9174,1.9184,1.929,1.9251,1.9249,1.9237,1.9241,1.9305,1.9303,1.9259,1.9255,1.9262,1.9309,1.9329,1.9335,1.9436,1.9345,1.935,1.9353,1.9355,1.9623,1.9626,0,0,0,0,0,0,1.9171,1.9181,1.9288,1.9292,1.9203,1.9242,1.9247,1.9275,1.9302,1.9303,1.9265,1.9259,1.9321,1.9329,1.9337,1.946,1.9351,1.9356,1.9359,1.9619,1.9623,1.9627,0,0,0,0,0,0,1.9168,1.9181,1.9286,1.9235,1.9247,1.9248,1.928,1.9278,1.9298,1.9306,1.9306,1.9285,1.9319,1.9329,1.9407,1.9461,1.9358,1.9363,1.9614,1.962,1.9625,1.9706,0,0,0,0,0,0,1.9164,1.9181,1.9218,1.9236,1.925,1.9354,1.9283,1.9282,1.9307,1.93,1.9325,1.9326,1.9317,1.9399,1.9412,1.9467,1.9368,1.961,1.9617,1.9624,1.9699,1.9714,1.9727,0,0,0,0,0,1.9159,1.9239,1.922,1.9234,1.9297,1.9357,1.9365,1.9351,1.9311,1.935,1.9356,1.9325,1.9452,1.9407,1.9422,1.9479,1.9606,1.9615,1.9623,1.9692,1.9711,1.9726,0,0,0,0,0,0,1.9229,1.9241,1.922,1.9308,1.9332,1.9347,1.9395,1.9371,1.9408,1.94,1.9383,1.9389,1.9472,1.9483,1.9432,1.958,1.9523,1.9535,1.9571,1.9588,1.9602,1.9599,1.9372,0,0,0,0,0,1.9254,1.93,1.9309,1.9386,1.9399,1.9395,1.9421,1.9408,1.9432,1.9443,1.9454,1.948,1.9526,1.9557,1.96,1.9699,1.9705,1.9745,1.9759,1.9771,1.9783,1.9838,1.9857,1.9655,1.9655,1.9655,0,0,1.9308,1.932,1.9351,1.94,1.9417,1.9468,1.9404,1.9459,1.9497,1.9452,1.9526,1.9535,1.9564,1.9653,1.9693,1.9665,1.9839,1.9782,1.9791,1.9796,1.9849,1.9868,1.9885,1.9661,1.966,1.9659,0,0,1.9432,1.9444,1.9511,1.9529,1.9554,1.9551,1.9567,1.9586,1.959,1.9664,1.9631,1.9677,1.9756,1.9778,1.98,1.9933,1.9907,1.9947,2.0022,2.0076,2.0092,2.0106,2.0157,2.0175,1.9958,1.9958,1.9958,0,1.9496,1.9569,1.9549,1.9607,1.9631,1.9589,1.9658,1.9677,1.9716,1.9735,1.9701,1.9801,1.9817,1.9912,1.9945,1.9963,1.9983,1.9945,2.0091,2.0105,2.0118,2.0166,2.0185,1.9963,1.9962,1.9962,1.9961,0,1.9648,1.9698,1.9749,1.9787,1.9816,1.9879,1.9871,1.9904,1.9888,1.9889,1.9966,1.9984,2.0031,2.0052,2.0037,2.0146,2.0128,2.0093,2.0036,2.0143,2.0188,2.0205,1.997,1.9968,1.9966,1.9965,0,0,1.9819,1.9844,1.9863,1.9881,1.9906,1.9946,2.0008,2.0052,2.0082,2.0109,2.0163,2.0231,2.0199,2.0224,2.0212,2.0259,2.0367,2.0219,2.022,2.0249,2.0491,2.052,2.0541,2.0349,2.0352,2.0355,2.049,0,1.9946,2.0052,2.0036,2.0139,2.0188,2.0149,2.0203,2.0226,2.0229,2.0272,2.0275,2.0325,2.0277,2.0293,2.0337,2.0344,2.0416,2.0334,2.0402,2.0405,2.0399,2.0564,2.0594,2.0721,2.0507,2.051,2.0512,0,2.0108,2.0141,2.0249,2.0268,2.0288,2.0337,2.0377,2.0417,2.0443,2.0441,2.0469,2.0449,2.0513,2.0452,2.0543,2.0487,2.0514,2.0522,2.0526,2.0535,2.0468,2.0581,2.0761,2.0782,2.0539,2.0537,2.0535,0,2.0226,2.0297,2.0372,2.0387,2.041,2.0446,2.0458,2.048,2.0508,2.0543,2.0562,2.0604,2.0629,2.0663,2.0656,2.0611,2.0749,2.0687,2.0753,2.0754,2.0787,2.0786,2.0978,2.0798,2.0798,2.0798,2.0797,0,2.0371,2.044,2.0426,2.0472,2.0548,2.0529,2.0606,2.0613,2.0633,2.0682,2.065,2.0697,2.0682,2.0729,2.0723,2.0801,2.0812,2.0815,2.0813,2.082,2.082,2.084,2.0832,2.0803,2.0802,2.0801,2.08,0,2.0518,2.051,2.059,2.0604,2.061,2.0666,2.068,2.0724,2.0724,2.0786,2.0799,2.08,2.0853,2.0848,2.0908,2.0905,2.1002,2.0988,2.0994,2.0992,2.106,2.1055,2.1274,2.1303,2.1102,2.1103,2.1105,0,2.0613,2.0664,2.0684,2.0714,2.0728,2.0776,2.0804,2.0787,2.0819,2.0852,2.0893,2.0943,2.0983,2.1071,2.1078,2.1124,2.1114,2.1187,2.1121,2.1126,2.1119,2.1118,2.1124,2.1202,2.1204,2.1206,2.1207,0,2.0783,2.0777,2.0817,2.0858,2.0892,2.0923,2.0951,2.0978,2.0964,2.1001,2.1054,2.1085,2.1146,2.1198,2.1242,2.1256,2.1232,2.1227,2.1246,2.1255,2.1257,2.1261,2.1033,2.1223,2.1222,2.1221,2.122,2.1219,2.0909,2.0954,2.0975,2.1022,2.1041,2.1069,2.1112,2.1116,2.116,2.1208,2.1195,2.1257,2.1283,2.1339,2.1358,2.1407,2.1381,2.1407,2.1414,2.1422,2.1431,2.1246,2.1414,2.1414,2.1414,2.1413,2.1413,0,2.108,2.1092,2.1135,2.1175,2.1213,2.1182,2.1212,2.1247,2.1301,2.1326,2.1365,2.1428,2.1478,2.1488,2.1537,2.1574,2.1565,2.1588,2.1587,2.1592,2.145,2.1431,2.1596,2.1596,2.1596,2.1595,2.1595,2.1595,2.1174,2.125,2.1246,2.1332,2.1343,2.1402,2.1422,2.1448,2.1468,2.1539,2.158,2.1585,2.1606,2.1655,2.1701,2.1702,2.1724,2.1753,2.1751,2.1619,2.1601,2.1584,2.1566,2.1756,2.1757,2.1889,2.189,2.1891]},{"header":{"parameterUnit":"m.s-1","parameterCategory":1,"la1":30.2991,"la2":30.254,"lo1":-89.0895,"lo2":-89.0444,"dy":0.0017,"dx":0.0017,"nx":28,"ny":28,"refTime":"2026-02-08T03:00:00:Z","depth":0,"parameterNumber":3,"parameterNumberName":"V-component_of_WINDS"},"data":[0,0,0,0,0,0,0,0,0,0,0,0,0,0,0,0,0,0,0,0,0,0,0,0,0,0,0,0,0,0,0,0,0,0,0,0,0,0,0,0,0,0,0,0,0,0,0,0,0,0,0,0,0,0,0,0,0,0,1.2311,1.231,0,1.23,1.23,1.23,1.2271,1.227,1.227,1.2269,1.2259,1.2259,1.226,0,0,0,0,0,0,0,0,0,0,0,0,0,1.2307,1.2307,1.2311,1.231,1.231,1.23,1.23,1.23,1.2271,1.227,1.227,1.2269,1.2259,1.2259,1.226,0,0,0,0,0,0,0,0,0,0,0,0,0,1.2303,1.2307,1.2311,1.2295,1.2293,1.23,1.23,1.23,1.2271,1.227,1.2269,1.2269,1.2259,1.2259,1.226,1.2281,0,0,1.2261,1.2261,0,0,0,0,0,0,0,0,1.2304,1.2304,1.2297,1.2296,1.2294,1.2286,1.2295,1.2293,1.2271,1.228,1.2269,1.2268,1.2269,1.2268,1.2268,1.228,1.228,1.2261,1.2261,1.2261,1.2262,0,0,0,0,0,0,0,1.2304,1.2304,1.2306,1.2297,1.2295,1.2288,1.2287,1.2294,1.2279,1.2279,1.2277,1.2276,1.2268,1.2268,1.2268,1.228,1.2261,1.2261,1.2262,1.2262,1.2309,1.231,0,0,0,0,0,0,1.2306,1.2304,1.2307,1.2306,1.2297,1.2289,1.2288,1.2289,1.2279,1.2277,1.2277,1.2275,1.2268,1.2267,1.2267,1.2292,1.2261,1.2262,1.2262,1.2308,1.2309,1.231,0,0,0,0,0,0,1.2306,1.2307,1.2307,1.2305,1.2304,1.229,1.2293,1.229,1.229,1.2278,1.2275,1.228,1.2267,1.2267,1.2278,1.2291,1.2262,1.2263,1.2307,1.2308,1.231,1.2341,0,0,0,0,0,0,1.2306,1.2307,1.2315,1.2305,1.2304,1.2318,1.2293,1.229,1.2291,1.2288,1.228,1.2277,1.2266,1.2277,1.2278,1.2291,1.2263,1.2306,1.2308,1.2309,1.2338,1.2343,1.2347,0,0,0,0,0,1.2306,1.2324,1.2315,1.2316,1.2314,1.2318,1.2318,1.2304,1.2292,1.23,1.2292,1.2278,1.2289,1.2279,1.2279,1.2293,1.2305,1.2307,1.2309,1.2336,1.2342,1.2347,0,0,0,0,0,0,1.2336,1.2323,1.2313,1.2328,1.2324,1.2314,1.2323,1.2311,1.2311,1.2308,1.2292,1.229,1.2304,1.2299,1.2287,1.2313,1.2295,1.2297,1.2315,1.232,1.2325,1.2325,1.2263,0,0,0,0,0,1.2344,1.2349,1.2337,1.2351,1.235,1.2337,1.2338,1.2328,1.2324,1.2323,1.2316,1.2312,1.2315,1.2318,1.232,1.2338,1.2335,1.2347,1.2351,1.2355,1.2357,1.2366,1.2372,1.2318,1.2318,1.2317,0,0,1.2362,1.2355,1.2359,1.2357,1.2353,1.2359,1.2336,1.2343,1.2346,1.2324,1.2334,1.2328,1.2324,1.2338,1.2344,1.2335,1.2372,1.2358,1.2361,1.2361,1.2369,1.2374,1.2379,1.2319,1.2319,1.2319,0,0,1.2396,1.2391,1.2402,1.2399,1.2394,1.2385,1.2387,1.2378,1.2374,1.2384,1.2367,1.2371,1.2376,1.2374,1.2373,1.2406,1.2393,1.2407,1.243,1.2439,1.2443,1.2447,1.2459,1.2463,1.241,1.241,1.241,0,1.2418,1.2425,1.241,1.2418,1.2417,1.2397,1.2409,1.2406,1.2402,1.2402,1.2392,1.2398,1.2393,1.2407,1.2415,1.2415,1.2418,1.2408,1.2444,1.2447,1.2451,1.2462,1.2466,1.2412,1.2411,1.2411,1.2411,0,1.2453,1.2458,1.2468,1.2464,1.2465,1.2474,1.2461,1.2464,1.2454,1.2446,1.2456,1.245,1.245,1.2453,1.2443,1.2465,1.2459,1.2447,1.2428,1.2458,1.2468,1.2472,1.2414,1.2414,1.2413,1.2413,0,0,1.2505,1.2493,1.2496,1.2494,1.2487,1.2491,1.2499,1.25,1.2502,1.25,1.2507,1.2512,1.25,1.25,1.2489,1.2497,1.2524,1.2484,1.2483,1.2491,1.2548,1.2558,1.2563,1.2516,1.2516,1.2517,1.2549,0,1.2537,1.2551,1.2538,1.2555,1.2559,1.254,1.2548,1.2544,1.2537,1.254,1.2533,1.2536,1.252,1.252,1.2527,1.2519,1.2535,1.2517,1.2522,1.2523,1.2524,1.2569,1.2579,1.2609,1.2553,1.2553,1.2554,0,1.2577,1.2576,1.2593,1.2584,1.2586,1.2593,1.2592,1.2595,1.2591,1.2585,1.2584,1.2572,1.258,1.2562,1.2573,1.2561,1.2562,1.2559,1.256,1.256,1.254,1.257,1.2619,1.2623,1.256,1.256,1.2559,0,1.2613,1.2616,1.2627,1.2626,1.2616,1.2622,1.2618,1.2612,1.2613,1.2613,1.2613,1.2614,1.2614,1.2615,1.2603,1.2591,1.2615,1.2596,1.2611,1.2611,1.2617,1.2617,1.2667,1.2618,1.2618,1.2618,1.2618,0,1.265,1.2662,1.2643,1.265,1.2662,1.2647,1.2659,1.2654,1.2649,1.2654,1.2638,1.2643,1.2627,1.2631,1.2621,1.2632,1.2632,1.2628,1.2626,1.263,1.263,1.263,1.2628,1.2619,1.2619,1.2619,1.2618,0,1.2693,1.2681,1.2692,1.2682,1.2679,1.2689,1.268,1.2686,1.2678,1.2685,1.2686,1.2673,1.2677,1.2665,1.2666,1.266,1.2676,1.267,1.2677,1.2676,1.2691,1.269,1.2743,1.2749,1.2696,1.2697,1.2697,0,1.2718,1.2726,1.2716,1.2719,1.2716,1.272,1.272,1.2706,1.2707,1.2703,1.2709,1.2712,1.2713,1.2719,1.2711,1.2712,1.2706,1.2724,1.2706,1.271,1.2706,1.2706,1.2706,1.2728,1.2729,1.2729,1.273,0,1.2762,1.2756,1.2758,1.2758,1.2759,1.2758,1.2756,1.2759,1.2744,1.2746,1.275,1.275,1.2752,1.2755,1.2754,1.275,1.2738,1.2735,1.2739,1.2743,1.2747,1.2745,1.2688,1.2734,1.2734,1.2733,1.2733,1.2733,1.2797,1.2803,1.2797,1.28,1.2797,1.2796,1.2801,1.2793,1.2796,1.2796,1.2787,1.2792,1.2788,1.2785,1.2783,1.2787,1.2779,1.2784,1.2785,1.2786,1.2789,1.2747,1.2787,1.2787,1.2787,1.2787,1.2786,0,1.284,1.2836,1.2838,1.2836,1.2838,1.2826,1.2823,1.2826,1.283,1.2827,1.2828,1.2832,1.2835,1.2826,1.2827,1.2832,1.2827,1.2833,1.2833,1.2832,1.2797,1.2793,1.2838,1.2838,1.2838,1.2838,1.2838,1.2838,1.2863,1.2873,1.2867,1.2875,1.2871,1.2875,1.2875,1.2874,1.2871,1.2876,1.2878,1.2872,1.2867,1.2868,1.287,1.2867,1.2868,1.2877,1.2872,1.2839,1.2834,1.283,1.2827,1.2877,1.2877,1.2907,1.2908,1.2908]}]]